| time (UTC) | temp C | wind direction | speed KPH | gust KPH | rain 1hr cm | rain 24hr cm | rain mn cm | humidity % | barometer mb |
| 20260503013006 | 16 | 258 | 1.6 | 19.3 | 0.00 | 0.00 | 0.00 | 37 | 1011.2 |
| 20260503011506 | 16 | 200 | 0.0 | 6.4 | 0.00 | 0.00 | 0.00 | 37 | 1011.2 |
| 20260503010010 | 17 | 226 | 0.0 | 4.8 | 0.00 | 0.00 | 0.00 | 38 | 1011.2 |
| 20260503004503 | 17 | 250 | 0.0 | 3.2 | 0.00 | 0.00 | 0.00 | 38 | 1011.4 |
| 20260503003002 | 17 | 262 | 0.0 | 11.3 | 0.00 | 0.00 | 0.00 | 38 | 1011.4 |
| 20260503001602 | 17 | 197 | 0.0 | 4.8 | 0.00 | 0.00 | 0.00 | 37 | 1011.6 |
| 20260503000107 | 17 | 211 | 0.0 | 17.7 | 0.00 | 0.00 | 0.00 | 35 | 1011.7 |
| 20260502234603 | 17 | 276 | 0.0 | 0.0 | 0.00 | 0.00 | 0.00 | 35 | 1011.8 |
| 20260502233056 | 17 | 230 | 0.0 | 0.0 | 0.00 | 0.00 | 0.00 | 34 | 1012.0 |
| 20260502231556 | 17 | 200 | 0.0 | 0.0 | 0.00 | 0.00 | 0.00 | 34 | 1012.3 |
| 20260502230053 | 17 | 250 | 0.0 | 0.0 | 0.00 | 0.00 | 0.00 | 35 | 1012.4 |
| 20260502224555 | 17 | 229 | 0.0 | 6.4 | 0.00 | 0.00 | 0.00 | 34 | 1012.5 |
| 20260502223051 | 17 | 273 | 0.0 | 0.0 | 0.00 | 0.00 | 0.00 | 34 | 1012.6 |
| 20260502221551 | 17 | 262 | 0.0 | 0.0 | 0.00 | 0.00 | 0.00 | 33 | 1012.6 |
| 20260502220047 | 17 | 206 | 0.0 | 3.2 | 0.00 | 0.00 | 0.00 | 33 | 1012.8 |
| 20260502214554 | 17 | 289 | 0.0 | 8.0 | 0.00 | 0.00 | 0.00 | 33 | 1013.0 |
| 20260502213042 | 17 | 258 | 0.0 | 8.0 | 0.00 | 0.00 | 0.00 | 32 | 1013.3 |
| 20260502211540 | 17 | 192 | 0.0 | 0.0 | 0.00 | 0.00 | 0.00 | 32 | 1013.5 |
| 20260502210047 | 17 | 307 | 0.0 | 16.1 | 0.00 | 0.00 | 0.00 | 31 | 1014.0 |
| 20260502204535 | 17 | 203 | 0.0 | 8.0 | 0.00 | 0.00 | 0.00 | 33 | 1014.2 |
| 20260502203033 | 17 | 200 | 1.6 | 12.9 | 0.00 | 0.00 | 0.00 | 32 | 1014.6 |
| 20260502201528 | 16 | 226 | 0.0 | 8.0 | 0.00 | 0.00 | 0.00 | 34 | 1014.9 |
| 20260502200027 | 16 | 220 | 1.6 | 20.9 | 0.00 | 0.00 | 0.00 | 32 | 1015.3 |
| 20260502194523 | 16 | 252 | 4.8 | 19.3 | 0.00 | 0.00 | 0.00 | 31 | 1015.5 |
| 20260502193020 | 16 | 182 | 0.0 | 9.7 | 0.00 | 0.00 | 0.00 | 31 | 1015.8 |
| 20260502191516 | 16 | 312 | 0.0 | 11.3 | 0.00 | 0.00 | 0.00 | 33 | 1016.2 |
| 20260502190021 | 15 | 242 | 0.0 | 16.1 | 0.00 | 0.00 | 0.00 | 33 | 1016.5 |
| 20260502184511 | 15 | 245 | 0.0 | 8.0 | 0.00 | 0.00 | 0.00 | 35 | 1016.7 |
| 20260502183009 | 15 | 243 | 0.0 | 11.3 | 0.00 | 0.00 | 0.00 | 34 | 1016.9 |
| 20260502181506 | 15 | 211 | 0.0 | 11.3 | 0.00 | 0.00 | 0.00 | 33 | 1017.1 |
| 20260502163047 | 13 | 195 | 0.0 | 8.0 | 0.00 | 0.00 | 0.00 | 36 | 1018.8 |
| 20260502161549 | 12 | 236 | 0.0 | 8.0 | 0.00 | 0.00 | 0.00 | 36 | 1019.1 |
| 20260502151532 | 11 | 205 | 0.0 | 0.0 | 0.00 | 0.00 | 0.00 | 40 | 1019.6 |
| 20260502123058 | 4 | 271 | 0.0 | 0.0 | 0.00 | 0.00 | 0.00 | 66 | 1020.2 |
| 20260502121601 | 4 | 251 | 0.0 | 0.0 | 0.00 | 0.00 | 0.00 | 67 | 1020.1 |
| 20260502120109 | 3 | 219 | 0.0 | 0.0 | 0.00 | 0.00 | 0.00 | 67 | 1020.1 |
| 20260502114634 | 3 | 261 | 0.0 | 0.0 | 0.00 | 0.00 | 0.00 | 70 | 1020.1 |
| 20260502113055 | 2 | 263 | 0.0 | 0.0 | 0.00 | 0.00 | 0.00 | 72 | 1019.9 |
| 20260502111554 | 2 | 259 | 0.0 | 0.0 | 0.00 | 0.00 | 0.00 | 72 | 1019.9 |
| 20260502110054 | 2 | 261 | 0.0 | 0.0 | 0.00 | 0.00 | 0.00 | 71 | 1019.9 |
| 20260502104554 | 2 | 261 | 0.0 | 0.0 | 0.00 | 0.00 | 0.00 | 71 | 1019.9 |
| 20260502103052 | 2 | 261 | 0.0 | 0.0 | 0.00 | 0.00 | 0.00 | 74 | 1020.0 |
| 20260502101613 | 2 | 261 | 0.0 | 0.0 | 0.00 | 0.00 | 0.00 | 72 | 1019.9 |
| 20260502100107 | 1 | 261 | 0.0 | 0.0 | 0.00 | 0.00 | 0.00 | 73 | 1020.0 |
| 20260502071529 | 5 | 231 | 0.0 | 0.0 | 0.00 | 0.00 | 0.00 | 60 | 1019.9 |
| 20260502070033 | 4 | 256 | 0.0 | 0.0 | 0.00 | 0.00 | 0.00 | 60 | 1020.0 |
| 20260502064540 | 4 | 262 | 0.0 | 0.0 | 0.00 | 0.00 | 0.00 | 60 | 1020.1 |
| 20260502063026 | 4 | 235 | 0.0 | 0.0 | 0.00 | 0.00 | 0.00 | 59 | 1020.1 |
| 20260502061524 | 4 | 257 | 0.0 | 0.0 | 0.00 | 0.00 | 0.00 | 60 | 1020.1 |
| 20260502060033 | 5 | 255 | 0.0 | 0.0 | 0.00 | 0.00 | 0.00 | 58 | 1020.1 |
| 20260502054521 | 4 | 264 | 0.0 | 0.0 | 0.00 | 0.00 | 0.00 | 61 | 1020.1 |
| 20260502053017 | 4 | 234 | 0.0 | 0.0 | 0.00 | 0.00 | 0.00 | 64 | 1020.2 |
| 20260502051516 | 3 | 234 | 0.0 | 0.0 | 0.00 | 0.00 | 0.00 | 64 | 1020.1 |
| 20260502050019 | 3 | 234 | 0.0 | 0.0 | 0.00 | 0.00 | 0.00 | 63 | 1020.1 |
| 20260502044511 | 3 | 234 | 0.0 | 0.0 | 0.00 | 0.00 | 0.00 | 65 | 1020.1 |
| 20260502043011 | 4 | 234 | 0.0 | 0.0 | 0.00 | 0.00 | 0.00 | 64 | 1020.1 |
| 20260502041513 | 5 | 234 | 0.0 | 0.0 | 0.00 | 0.00 | 0.00 | 61 | 1020.1 |
| 20260502040013 | 5 | 234 | 0.0 | 0.0 | 0.00 | 0.00 | 0.00 | 63 | 1020.1 |
| 20260502034510 | 5 | 234 | 0.0 | 0.0 | 0.00 | 0.00 | 0.00 | 62 | 1020.2 |
| 20260502033016 | 5 | 234 | 0.0 | 0.0 | 0.00 | 0.00 | 0.00 | 62 | 1020.3 |
| 20260502031509 | 5 | 234 | 0.0 | 0.0 | 0.00 | 0.00 | 0.00 | 57 | 1020.2 |
| 20260502030009 | 5 | 235 | 0.0 | 0.0 | 0.00 | 0.00 | 0.00 | 62 | 1020.1 |
| 20260502024513 | 5 | 235 | 0.0 | 0.0 | 0.00 | 0.00 | 0.00 | 58 | 1020.2 |
| 20260502023008 | 6 | 235 | 0.0 | 0.0 | 0.00 | 0.00 | 0.00 | 58 | 1020.2 |
| 20260502021507 | 6 | 235 | 0.0 | 0.0 | 0.00 | 0.00 | 0.00 | 52 | 1020.1 |
| 20260502020007 | 7 | 235 | 0.0 | 0.0 | 0.00 | 0.00 | 0.00 | 49 | 1019.9 |
| 20260502014506 | 7 | 235 | 0.0 | 0.0 | 0.00 | 0.00 | 0.00 | 47 | 1019.8 |